CW9688 Weather Reports


Display with metric or nautical units.
time (UTC)temp
F
wind
direction
speed
MPH
gust
MPH
rain 1hr
in
rain 24hr
in
rain mn
in
humidity
%
barometer
mb
20260508152306 55 157 2.0 5.0 0.00 0.01 0.00 62 1009.2
20260508151304 56 177 5.0 7.0 0.00 0.01 0.00 63 1009.2
20260508144804 54 211 4.0 7.0 0.00 0.01 0.00 66 1009.2
20260508144304 53 195 4.0 6.0 0.00 0.01 0.00 69 1009.2
20260508143804 53 179 5.0 7.0 0.00 0.01 0.00 72 1009.2
20260508143304 52 195 5.0 6.0 0.00 0.01 0.00 72 1009.2
20260508142804 51 172 5.0 9.0 0.00 0.01 0.00 74 1009.2
20260508141804 51 191 5.0 10.0 0.00 0.01 0.00 77 1009.2
20260508141304 50 185 3.0 9.0 0.00 0.01 0.00 79 1009.2
20260508140804 50 207 3.0 7.0 0.00 0.01 0.00 80 1009.2
20260508140304 50 203 5.0 10.0 0.00 0.01 0.00 80 1009.2
20260508135804 49 209 5.0 8.0 0.00 0.01 0.00 84 1009.2
20260508135306 48 190 3.0 7.0 0.00 0.01 0.00 84 1009.2
20260508134304 47 219 2.0 5.0 0.00 0.01 0.00 85 1009.2
20260508132306 46 184 0.0 1.0 0.00 0.01 0.00 86 1009.2
20260508131804 46 184 1.0 3.0 0.00 0.01 0.00 87 1009.2
20260508125804 46 183 2.0 3.0 0.00 0.01 0.00 88 1009.2
20260508124304 45 295 1.0 3.0 0.00 0.01 0.00 90 1009.2
20260508123804 45 0 2.0 3.0 0.00 0.01 0.00 90 1009.2
20260508121804 45 282 4.0 6.0 0.00 0.01 0.00 91 1009.2
20260508121304 44 340 3.0 5.0 0.00 0.01 0.00 93 1009.2
20260508120304 43 43 0.0 2.0 0.00 0.01 0.00 93 1009.2
20260508115306 43 43 0.0 1.0 0.00 0.01 0.00 93 1009.2
20260508114804 43 43 0.0 2.0 0.00 0.01 0.00 93 1009.2
20260508114304 42 43 0.0 2.0 0.00 0.01 0.00 93 1009.2
20260508112307 42 43 1.0 2.0 0.00 0.01 0.00 93 1009.2
20260508104803 43 43 0.0 1.0 0.00 0.01 0.00 92 1009.2
20260508103804 43 43 1.0 2.0 0.00 0.01 0.00 92 1009.2
20260508103303 43 44 0.0 0.0 0.00 0.01 0.00 91 1009.2
20260508102804 44 43 0.0 3.0 0.00 0.01 0.00 92 1009.2
20260508101304 44 0 0.0 3.0 0.00 0.01 0.00 92 1009.2
20260508095804 44 201 1.0 2.0 0.00 0.01 0.00 92 1009.2
20260508093304 44 201 0.0 3.0 0.00 0.01 0.00 92 1009.2
20260508092312 44 50 0.0 2.0 0.00 0.01 0.00 92 1009.2
20260508091804 44 50 1.0 2.0 0.00 0.01 0.00 91 1009.2
20260508090804 44 50 1.0 2.0 0.00 0.01 0.00 91 1009.2
20260508090304 44 50 0.0 0.0 0.00 0.01 0.00 91 1009.2
20260508085306 45 50 0.0 0.0 0.00 0.01 0.00 90 1009.2
20260508084304 45 50 0.0 1.0 0.00 0.01 0.00 90 1009.2
20260508083803 46 50 1.0 2.0 0.00 0.01 0.00 90 1009.2
20260508083304 46 50 0.0 3.0 0.00 0.01 0.00 90 1009.2
20260508082804 46 1 1.0 3.0 0.00 0.01 0.00 90 1009.2
20260508075803 46 315 3.0 5.0 0.00 0.01 0.00 90 1009.2
20260508074804 46 152 1.0 2.0 0.00 0.01 0.00 90 1009.2
20260508074304 46 152 1.0 2.0 0.00 0.01 0.00 90 1009.2
20260508072804 46 152 0.0 2.0 0.00 0.01 0.00 89 1009.2
20260508071304 47 152 0.0 2.0 0.00 0.01 0.00 86 1009.2
20260508070804 47 152 0.0 2.0 0.00 0.01 0.00 86 1009.2
20260508065306 48 152 3.0 3.0 0.00 0.01 0.00 85 1009.2
20260508064804 49 33 1.0 3.0 0.00 0.01 0.00 84 1009.2
20260508064304 49 33 0.0 2.0 0.00 0.01 0.00 83 1009.2
20260508063304 50 33 0.0 2.0 0.00 0.01 0.00 80 1009.2
20260508062803 51 31 2.0 5.0 0.00 0.01 0.00 79 1009.2
20260508062306 51 56 4.0 6.0 0.00 0.01 0.00 80 1009.2
20260508055306 54 306 6.0 13.0 0.00 0.00 0.00 64 1009.2
20260508053304 54 55 2.0 6.0 0.00 0.00 0.00 61 1009.2
20260508050804 55 53 2.0 6.0 0.00 0.00 0.00 59 1009.2
20260508044804 55 98 4.0 7.0 0.00 0.00 0.00 57 1009.2
20260508044304 56 84 4.0 9.0 0.00 0.00 0.00 58 1009.2
20260508043304 55 61 3.0 5.0 0.00 0.00 0.00 59 1009.2
20260508041304 56 1 4.0 6.0 0.00 0.00 0.00 57 1009.2
20260508034804 56 34 4.0 8.0 0.00 0.00 0.00 56 1009.2
20260508032306 59 50 6.0 14.0 0.00 0.00 0.00 46 1011.3
20260508030804 60 14 3.0 7.0 0.00 0.00 0.00 42 1011.3
20260508024804 61 134 1.0 2.0 0.00 0.00 0.00 40 1011.3
20260508023304 61 180 1.0 5.0 0.00 0.00 0.00 39 1011.3
20260508021804 61 144 1.0 2.0 0.00 0.00 0.00 38 1011.3
20260508021304 61 150 1.0 2.0 0.00 0.00 0.00 38 1011.3
20260508014304 62 257 4.0 7.0 0.00 0.00 0.00 40 1011.3
20260508013804 63 324 1.0 2.0 0.00 0.00 0.00 39 1011.3
20260508012804 63 35 4.0 12.0 0.00 0.00 0.00 38 1011.3
20260508012307 64 26 3.0 9.0 0.00 0.00 0.00 37 1011.3
20260508011804 64 5 5.0 13.0 0.00 0.00 0.00 35 1011.3
20260508010804 66 30 7.0 12.0 0.00 0.00 0.00 29 1011.3
20260508010304 66 33 7.0 13.0 0.00 0.00 0.00 28 1011.3
20260508005804 66 2 5.0 12.0 0.00 0.00 0.00 27 1011.3
20260508005306 67 14 5.0 13.0 0.00 0.00 0.00 28 1011.3
20260508002804 68 179 0.0 2.0 0.00 0.00 0.00 24 1011.3
20260507234304 70 51 4.0 6.0 0.00 0.00 0.00 24 1011.3
20260507232803 71 295 7.0 13.0 0.00 0.00 0.00 23 1011.3
20260507231304 72 287 4.0 8.0 0.00 0.00 0.00 22 1011.3
20260507230804 71 325 5.0 9.0 0.00 0.00 0.00 25 1011.3
20260507225306 71 263 9.0 15.0 0.00 0.00 0.00 22 1011.3
20260507224804 71 307 9.0 14.0 0.00 0.00 0.00 23 1011.3
20260507223804 72 308 7.0 14.0 0.00 0.00 0.00 25 1011.3
20260507223304 72 277 7.0 15.0 0.00 0.00 0.00 25 1011.3
20260507222306 71 265 7.0 13.0 0.00 0.00 0.00 24 1011.3
20260507221303 71 277 7.0 15.0 0.00 0.00 0.00 26 1011.3
20260507220803 70 247 11.0 20.0 0.00 0.00 0.00 24 1011.3
20260507215803 71 271 12.0 21.0 0.00 0.00 0.00 23 1011.3
20260507214803 71 262 9.0 18.0 0.00 0.00 0.00 24 1011.3
20260507214304 72 278 12.0 21.0 0.00 0.00 0.00 24 1011.3
20260507213804 72 285 9.0 18.0 0.00 0.00 0.00 23 1011.3
20260507212804 73 276 7.0 17.0 0.00 0.00 0.00 24 1011.3
20260507212307 72 297 10.0 18.0 0.00 0.00 0.00 25 1011.3
20260507205804 71 287 9.0 20.0 0.00 0.00 0.00 24 1011.3
20260507205306 69 242 11.0 20.0 0.00 0.00 0.00 25 1011.3
20260507204804 69 242 8.0 20.0 0.00 0.00 0.00 25 1011.3
20260507204304 71 248 9.0 15.0 0.00 0.00 0.00 26 1011.3
20260507202306 70 301 3.0 13.0 0.00 0.00 0.00 26 1011.3
20260507201304 70 230 7.0 12.0 0.00 0.00 0.00 27 1011.3
20260507200303 69 188 2.0 18.0 0.00 0.00 0.00 27 1011.3
20260507195803 69 294 9.0 13.0 0.00 0.00 0.00 26 1011.3
20260507194803 70 214 8.0 15.0 0.00 0.00 0.00 26 1011.3
20260507194303 69 257 9.0 15.0 0.00 0.00 0.00 26 1011.3
20260507193304 68 276 12.0 21.0 0.00 0.00 0.00 27 1011.3
20260507192803 68 252 11.0 20.0 0.00 0.00 0.00 27 1011.3
20260507191804 68 277 7.0 16.0 0.00 0.00 0.00 28 1011.3
20260507190803 68 271 6.0 20.0 0.00 0.00 0.00 29 1011.3
20260507185804 67 300 7.0 14.0 0.00 0.00 0.00 31 1011.3
20260507184804 66 247 7.0 13.0 0.00 0.00 0.00 32 1011.3
20260507183804 64 249 6.0 18.0 0.00 0.00 0.00 33 1011.3
20260507182804 64 302 6.0 16.0 0.00 0.00 0.00 34 1011.3
20260507182306 63 297 8.0 14.0 0.00 0.00 0.00 33 1011.3
20260507181804 63 256 7.0 16.0 0.00 0.00 0.00 34 1011.3
20260507180804 63 255 9.0 15.0 0.00 0.00 0.00 32 1011.3
20260507180304 63 264 10.0 17.0 0.00 0.00 0.00 33 1011.3
20260507175306 63 246 9.0 16.0 0.00 0.00 0.00 32 1011.3
20260507174304 63 247 7.0 15.0 0.00 0.01 0.00 34 1011.3
20260507173804 62 214 5.0 12.0 0.00 0.01 0.00 36 1011.3
20260507172307 62 164 3.0 7.0 0.00 0.01 0.00 36 1011.3
20260507171804 63 194 3.0 8.0 0.00 0.01 0.00 36 1011.3
20260507171303 62 239 3.0 7.0 0.00 0.01 0.00 35 1011.3
20260507165803 62 199 4.0 7.0 0.00 0.02 0.00 36 1011.3
20260507164804 62 224 4.0 12.0 0.00 0.02 0.00 36 1011.3
20260507163304 62 261 7.0 15.0 0.00 0.03 0.00 35 1011.3
20260507161304 62 222 5.0 12.0 0.00 0.03 0.00 40 1011.3
20260507160804 61 187 6.0 13.0 0.00 0.04 0.00 41 1011.3
20260507160304 60 214 5.0 12.0 0.00 0.04 0.00 42 1011.3
20260507155804 59 199 5.0 9.0 0.00 0.04 0.00 45 1011.3
20260507155306 58 202 4.0 9.0 0.00 0.04 0.00 44 1011.3
20260507153303 55 184 6.0 10.0 0.00 0.05 0.00 45 1011.3